TimeMDT,TemperatureF,Dew PointF,Humidity,Sea Level PressureIn,VisibilityMPH,Wind Direction,Wind SpeedMPH,Gust SpeedMPH,PrecipitationIn,Events,Conditions,WindDirDegrees,DateUTC
12:51 AM,66.9,64.0,90,29.89,10.0,North,11.5,-,N/A,,Mostly Cloudy,350,2013-09-13 06:51:00
1:51 AM,66.9,64.0,90,29.88,10.0,North,10.4,-,N/A,,Overcast,350,2013-09-13 07:51:00
2:51 AM,68.0,63.0,84,29.87,10.0,North,10.4,-,N/A,,Overcast,350,2013-09-13 08:51:00
3:51 AM,66.9,64.0,90,29.88,10.0,NNW,5.8,-,0.00,,Overcast,330,2013-09-13 09:51:00
4:51 AM,66.9,64.0,90,29.87,6.0,NNW,8.1,-,0.11,Rain,Light Rain,340,2013-09-13 10:51:00
5:51 AM,66.0,64.0,93,29.86,5.0,North,11.5,-,0.11,Rain,Rain,360,2013-09-13 11:51:00
6:51 AM,66.0,64.0,93,29.88,10.0,North,10.4,-,0.03,Rain,Light Rain,360,2013-09-13 12:51:00
7:51 AM,66.0,64.0,93,29.89,10.0,NNW,11.5,-,0.02,Rain,Light Rain,340,2013-09-13 13:51:00
8:51 AM,66.0,64.0,93,29.91,10.0,North,10.4,-,0.01,Rain,Light Rain,360,2013-09-13 14:51:00
9:51 AM,66.9,64.0,90,29.91,10.0,ENE,5.8,-,0.02,Rain,Light Rain,60,2013-09-13 15:51:00
10:51 AM,70.0,64.0,81,29.89,10.0,NNE,8.1,-,0.00,,Overcast,30,2013-09-13 16:51:00
11:51 AM,72.0,63.0,73,29.88,10.0,NE,8.1,-,N/A,,Overcast,40,2013-09-13 17:51:00
12:51 PM,73.0,63.0,71,29.86,10.0,North,8.1,-,N/A,,Overcast,360,2013-09-13 18:51:00
1:51 PM,72.0,64.9,78,29.83,10.0,North,11.5,-,0.00,Rain,Light Rain,360,2013-09-13 19:51:00
2:51 PM,70.0,64.0,81,29.82,10.0,North,11.5,-,0.00,Rain,Light Rain,10,2013-09-13 20:51:00
3:51 PM,70.0,64.9,84,29.80,10.0,North,17.3,-,0.00,,Overcast,10,2013-09-13 21:51:00
4:51 PM,70.0,64.9,84,29.79,10.0,North,18.4,-,N/A,,Overcast,10,2013-09-13 22:51:00
5:51 PM,69.1,64.0,84,29.80,10.0,North,18.4,-,N/A,,Overcast,10,2013-09-13 23:51:00
6:51 PM,69.1,64.0,84,29.80,10.0,North,15.0,-,N/A,,Overcast,10,2013-09-14 00:51:00
7:51 PM,68.0,63.0,84,29.80,10.0,North,17.3,-,0.00,,Overcast,350,2013-09-14 01:51:00
8:51 PM,66.9,63.0,87,29.82,10.0,North,17.3,-,0.00,,Overcast,350,2013-09-14 02:51:00
9:51 PM,66.9,63.0,87,29.82,10.0,North,16.1,-,0.00,Rain,Light Rain,10,2013-09-14 03:51:00
10:51 PM,66.9,63.0,87,29.81,10.0,North,13.8,-,0.00,,Overcast,350,2013-09-14 04:51:00
11:51 PM,66.9,62.1,84,29.80,10.0,North,16.1,-,N/A,,Mostly Cloudy,350,2013-09-14 05:51:00